Date String (YYYY-MM-DD hh:mm:ss) UTC,Instrument flags,Ambient pressure (hPa),Sample flow (lpm),Bypass flow (lpm),Sample temperature (°C),Ambient temperature (°C),ASC tube jacket temperature (°C),LED temperature (°C),Box temperature (°C),Sample RH (%),Span deviation,Mass concentration (μg/m³),Mass concentration (μg/m³),Mass concentration (μg/m³)
DateTimeUTC,F1_M11,P_M11,Q1_M11,Q2_M11,T1_M11,T2_M11,T3_M11,T4_M11,T5_M11,U1_M11,ZSPAN_M11,X0_M11,X2_M11,X1_M11
2022-04-10 15:00:00,,0814.9,5.01,0.00,23.3,22.2,00.0,32.3,25.0,08.5,0000.0,0012.57,0004.45,0002.62
2022-04-10 15:01:00,,0814.8,5.00,0.00,23.3,22.2,00.0,32.3,25.0,08.9,0000.0,0013.22,0004.53,0002.64
2022-04-10 15:02:00,,0814.8,4.99,0.00,23.3,22.2,00.0,32.3,25.0,08.0,0000.0,0013.08,0004.47,0002.64
2022-04-10 15:03:00,,0814.8,4.99,0.00,23.3,22.3,00.0,32.3,25.0,08.0,0000.0,0012.64,0004.40,0002.66
2022-04-10 15:04:00,,0814.9,5.01,0.00,23.3,22.3,00.0,32.3,25.0,08.6,0000.0,0012.28,0004.42,0002.68
2022-04-10 15:05:00,,0814.8,5.00,0.00,23.3,22.3,00.0,32.3,25.0,08.3,0000.0,0012.06,0004.35,0002.68
2022-04-10 15:06:00,,0814.8,4.99,0.00,23.3,22.2,00.0,32.3,25.0,08.0,0000.0,0012.13,0004.42,0002.68
2022-04-10 15:07:00,,0814.8,5.00,0.00,23.3,22.2,00.0,32.3,25.0,08.2,0000.0,0011.49,0004.49,0002.68
2022-04-10 15:08:00,,0814.8,5.01,0.00,23.3,22.2,00.0,32.3,24.9,08.5,0000.0,0011.09,0004.55,0002.69
2022-04-10 15:09:00,,0814.8,5.00,0.00,23.3,22.2,00.0,32.3,24.9,08.8,0000.0,0010.96,0004.53,0002.71
2022-04-10 15:10:00,,0814.7,4.99,0.00,23.3,22.2,00.0,32.3,25.0,08.6,0000.0,0011.06,0004.53,0002.73
2022-04-10 15:11:00,,0814.8,5.01,0.00,23.3,22.2,00.0,32.3,25.0,07.9,0000.0,0011.40,0004.57,0002.75
2022-04-10 15:12:00,,0814.8,5.00,0.00,23.3,22.2,00.0,32.3,24.9,08.4,0000.0,0012.25,0004.59,0002.74
2022-04-10 15:13:00,,0814.8,4.99,0.00,23.2,22.2,00.0,32.3,24.9,08.1,0000.0,0013.38,0004.66,0002.75
2022-04-10 15:14:00,,0814.8,4.99,0.00,23.2,22.2,00.0,32.3,25.0,08.5,0000.0,0013.71,0004.75,0002.74
2022-04-10 15:15:00,,0814.8,5.00,0.00,23.2,22.2,00.0,32.3,24.9,08.4,0000.0,0013.52,0004.73,0002.74
2022-04-10 15:16:00,,0814.8,5.01,0.00,23.2,22.2,00.0,32.3,25.0,07.5,0000.0,0013.67,0004.74,0002.73
2022-04-10 15:17:00,,0814.8,5.00,0.00,23.2,22.1,00.0,32.2,24.9,07.6,0000.0,0013.97,0004.80,0002.75
2022-04-10 15:18:00,,0814.8,4.99,0.00,23.2,22.1,00.0,32.2,24.9,08.3,0000.0,0014.38,0004.77,0002.75
2022-04-10 15:19:00,,0814.8,5.01,0.00,23.2,22.0,00.0,32.2,24.9,08.9,0000.0,0014.38,0004.76,0002.77
2022-04-10 15:20:00,,0814.8,5.01,0.00,23.2,22.1,00.0,32.2,24.9,08.6,0000.0,0014.64,0004.78,0002.78
2022-04-10 15:21:00,,0814.8,4.98,0.00,23.2,22.0,00.0,32.2,24.9,07.7,0000.0,0014.65,0004.79,0002.77
2022-04-10 15:22:00,,0814.7,5.01,0.00,23.2,22.0,00.0,32.2,24.8,07.1,0000.0,0014.35,0004.75,0002.77
2022-04-10 15:23:00,,0814.8,5.00,0.00,23.2,22.0,00.0,32.2,24.9,08.3,0000.0,0013.24,0004.68,0002.77
2022-04-10 15:24:00,,0814.8,4.99,0.00,23.2,22.0,00.0,32.2,24.8,07.6,0000.0,0012.35,0004.68,0002.78
2022-04-10 15:25:00,,0814.8,5.02,0.00,23.2,22.0,00.0,32.2,24.7,07.8,0000.0,0012.06,0004.63,0002.78
2022-04-10 15:26:00,,0814.9,4.99,0.00,23.2,21.9,00.0,32.2,24.8,07.8,0000.0,0012.33,0004.68,0002.78
2022-04-10 15:27:00,,0814.8,4.99,0.00,23.2,21.9,00.0,32.2,24.9,08.7,0000.0,0012.71,0004.67,0002.79
2022-04-10 15:28:00,,0814.7,5.01,0.00,23.2,21.9,00.0,32.2,24.8,08.0,0000.0,0013.02,0004.63,0002.77
2022-04-10 15:29:00,,0814.7,5.00,0.00,23.1,21.9,00.0,32.2,24.8,07.5,0000.0,0013.05,0004.60,0002.76
2022-04-10 15:30:00,,0814.8,4.99,0.00,23.1,21.8,00.0,32.2,24.7,07.9,0000.0,0012.80,0004.56,0002.73
2022-04-10 15:31:00,,0814.9,5.01,0.00,23.1,21.8,00.0,32.2,24.8,07.5,0000.0,0012.77,0004.59,0002.72
2022-04-10 15:32:00,,0814.9,4.98,0.00,23.2,21.9,00.0,32.2,24.9,07.6,0000.0,0012.87,0004.60,0002.73
2022-04-10 15:33:00,,0814.8,4.99,0.00,23.1,21.9,00.0,32.2,24.8,07.3,0000.0,0013.12,0004.59,0002.72
2022-04-10 15:34:00,,0814.9,5.01,0.00,23.1,21.9,00.0,32.2,24.8,06.9,0000.0,0013.29,0004.65,0002.71
2022-04-10 15:35:00,,0814.9,5.01,0.00,23.1,21.9,00.0,32.2,24.8,07.5,0000.0,0013.10,0004.63,0002.70
2022-04-10 15:36:00,,0814.9,5.00,0.00,23.1,21.9,00.0,32.2,24.8,07.4,0000.0,0013.20,0004.61,0002.68
2022-04-10 15:37:00,,0815.0,4.99,0.00,23.1,21.9,00.0,32.1,24.7,07.9,0000.0,0013.06,0004.52,0002.66
2022-04-10 15:38:00,,0814.9,4.99,0.00,23.1,21.9,00.0,32.1,24.7,07.7,0000.0,0012.42,0004.50,0002.65
2022-04-10 15:39:00,,0814.9,5.01,0.00,23.1,22.0,00.0,32.1,24.8,07.2,0000.0,0012.19,0004.52,0002.66
2022-04-10 15:40:00,,0815.0,5.01,0.00,23.1,22.0,00.0,32.1,24.8,07.8,0000.0,0011.97,0004.61,0002.67
2022-04-10 15:41:00,,0815.0,4.99,0.00,23.1,22.0,00.0,32.1,24.8,07.4,0000.0,0012.69,0004.64,0002.69
2022-04-10 15:42:00,,0814.9,5.00,0.00,23.1,22.0,00.0,32.1,24.8,07.8,0000.0,0012.63,0004.63,0002.71
2022-04-10 15:43:00,,0815.0,5.00,0.00,23.1,21.9,00.0,32.1,24.8,08.5,0000.0,0013.05,0004.67,0002.72
2022-04-10 15:44:00,,0815.0,5.01,0.00,23.1,21.9,00.0,32.1,24.7,08.5,0000.0,0013.12,0004.67,0002.72
2022-04-10 15:45:00,,0815.0,5.00,0.00,23.1,21.9,00.0,32.1,24.8,08.0,0000.0,0013.05,0004.63,0002.73
2022-04-10 15:46:00,,0815.1,4.99,0.00,23.1,22.0,00.0,32.1,24.8,07.1,0000.0,0013.15,0004.65,0002.72
2022-04-10 15:47:00,,0815.1,5.00,0.00,23.1,21.9,00.0,32.1,24.8,07.4,0000.0,0013.00,0004.70,0002.73
2022-04-10 15:48:00,,0815.4,5.00,0.00,23.1,21.9,00.0,32.1,24.8,07.5,0000.0,0012.86,0004.74,0002.74
2022-04-10 15:49:00,,0815.1,5.00,0.00,23.1,21.9,00.0,32.1,24.8,07.7,0000.0,0013.17,0004.78,0002.75
2022-04-10 15:50:00,,0815.2,5.01,0.00,23.1,21.9,00.0,32.1,24.7,07.7,0000.0,0013.83,0004.74,0002.74
2022-04-10 15:51:00,,0815.2,5.00,0.00,23.1,21.9,00.0,32.1,24.8,08.2,0000.0,0013.90,0004.70,0002.72
2022-04-10 15:52:00,,0815.2,5.00,0.00,23.1,21.9,00.0,32.1,24.8,08.0,0000.0,0013.23,0004.69,0002.72
2022-04-10 15:53:00,,0815.1,5.00,0.00,23.1,21.9,00.0,32.1,24.8,07.0,0000.0,0013.12,0004.64,0002.68
2022-04-10 15:54:00,,0815.2,5.01,0.00,23.1,21.9,00.0,32.1,24.8,07.1,0000.0,0012.62,0004.57,0002.66
2022-04-10 15:55:00,,0815.3,5.01,0.00,23.1,21.9,00.0,32.1,24.8,07.9,0000.0,0012.18,0004.55,0002.64
2022-04-10 15:56:00,,0815.3,4.99,0.00,23.1,22.0,00.0,32.1,24.9,08.0,0000.0,0012.18,0004.57,0002.64
2022-04-10 15:57:00,,0815.3,5.00,0.00,23.1,22.0,00.0,32.1,24.9,08.0,0000.0,0012.30,0004.55,0002.64
2022-04-10 15:58:00,,0815.3,5.01,0.00,23.1,22.0,00.0,32.1,24.9,07.6,0000.0,0012.37,0004.52,0002.64
2022-04-10 15:59:00,,0815.5,5.00,0.00,23.1,21.9,00.0,32.1,24.9,08.2,0000.0,0012.78,0004.49,0002.63
